Regional Weather Roundup
Issued by NWS Columbia, SC

Home | Current Version | Previous Version | Text Only | Print | Product List | Glossary On
Versions: 1 2 3 4 5 6 7 8 9 10 11 12 13 14 15 16 17 18 19 20 21 22 23 24 25 26 27 28 29 30 31 32 33 34 35 36 37 38 39 40 41 42 43 44 45 46 47 48 49 50
000
ASUS42 KCAE 061610
RWRCAE
REGIONAL WEATHER ROUNDUP
NATIONAL WEATHER SERVICE COLUMBIA SC
1100 AM EST FRI MAR 06 2015

NOTE: "FAIR" INDICATES FEW OR NO CLOUDS BELOW 12,000 FEET WITH NO
SIGNIFICANT WEATHER AND/OR OBSTRUCTIONS TO VISIBILITY.

NOT ALL STATIONS ARE QUALITY CONTROLLED BY THE NATIONAL
WEATHER SERVICE. USE DATA WITH CAUTION...ESPECIALLY
DEWPOINT OBSERVATIONS.

SCZ001>056-GAZ040-063>065-077-061700-
...UPSTATE SOUTH CAROLINA...

CITY           SKY/WX    TMP DP  RH WIND       PRES   REMARKS
ANDERSON       MOSUNNY   40  19  43 E9G16     30.46S WCI  34
LIBERTY        SUNNY     39  17  40 MISG      30.44R
SPARTANBURG    SUNNY     37  18  44 E5        30.47R WCI  34
CLEMSON        SUNNY     40  14  34 VRB7      30.46R
GREENVILLE     SUNNY     36  13  38 VRB6      30.45S WCI  31
GREENWOOD      PTSUNNY   38  17  42 N7        30.47S WCI  33
GREER          SUNNY     36  14  40 NE7       30.44F WCI  30
ROCK HILL      SUNNY     34  17  50 N8G17     30.48F WCI  27
LAURENS        SUNNY     34  27  75 E9        30.46F WCI  26


...CENTRAL SOUTH CAROLINA...

CITY           SKY/WX    TMP DP  RH WIND       PRES   REMARKS
COLUMBIA APT   PTSUNNY   40  26  57 NE9       30.46S WCI  34
COLUMBIA OWENS CLOUDY    39  26  59 VRB5      30.48S
DARLINGTON     SUNNY     37  25  60 NE12G18   30.49F WCI  30
FLORENCE       MOSUNNY   39  22  50 NE12G23   30.47S WCI  32
MCENTIRE ANGB  CLOUDY    40  27  60 NE9       30.46S WCI  33
ORANGEBURG     CLOUDY    41  27  57 NE12      30.44S
SUMTER SHAW    CLOUDY    38  27  63 N15       30.45R WCI  30
NEWBERRY       MOSUNNY   36  25  64 NE8       30.49F WCI  29
AIKEN          PTSUNNY   41  27  56 N13       30.46S
BARNWELL       CLOUDY    43  32  65 E10       30.44S
MANNING        CLOUDY    41  23  48 N8G22     30.45S
CAMDEN         CLOUDY    37  25  60 N10       30.47F WCI  30
LANCASTER      LGT RAIN  32  21  64 NE7       30.48F WCI  26
WINNSBORO      PTSUNNY   36  27  69 NE10      30.46F WCI  28


...EASTERN AND COASTAL SOUTH CAROLINA...

CITY           SKY/WX    TMP DP  RH WIND       PRES   REMARKS
MYRTLE BEACH   CLOUDY    37  21  52 NE16      30.46S WCI  28
N MYRTLE BCH   CLOUDY    38  23  55 NE17      30.44F WCI  28
MARION         CLOUDY    37  21  52 N13       30.48S WCI  29
HARTSVILLE     FAIR      37  23  56 E15       30.47F WCI  28
FLORENCE       MOSUNNY   39  22  50 NE12G23   30.47S WCI  32
DARLINGTON     SUNNY     37  25  60 NE12G18   30.49F WCI  30
CHARLESTON APT CLOUDY    41  30  65 N8        30.42S
MOUNT PLEASANT LGT RAIN  39  32  75 NE3       30.43S
WALTERBORO     CLOUDY    43  34  70 N8        30.44S
BEAUFORT       CLOUDY    42  33  70 N13       30.42S


...EASTERN GEORGIA...

CITY           SKY/WX    TMP DP  RH WIND       PRES   REMARKS
AUGUSTA BUSH F CLOUDY    42  28  57 N8        30.45R
AUGUSTA DANIEL CLOUDY    44  28  53 NE12      30.44R
THOMSON        CLOUDY    43  33  68 N9        30.49S
WASHINGTON     FAIR      43  32  65 NE7       30.44S
CLAXTON        CLOUDY    43  36  75 NE9       30.41S
SYLVANIA       CLOUDY    41  36  81 NE9       30.43S
STATESBORO     CLOUDY    42  35  76 NE10      30.42R
SAVANNAH       CLOUDY    45  34  65 NE9       30.40F


...SOUTHERN NORTH CAROLINA...

CITY           SKY/WX    TMP DP  RH WIND       PRES   REMARKS
CHARLOTTE      MOSUNNY   32  14  47 VRB5G18   30.48F WCI  27
MONROE         CLOUDY    31  20  63 NE12      30.48S WCI  22
WADESBORO      MOSUNNY   36  20  53 N10       30.49S WCI  28
ROCKINGHAM       N/A     35  19  52 N7        30.49S WCI  29
RUTHERFORDTON  SUNNY     34  14  44 CALM      30.46F
ASHEVILLE      SUNNY     32  14  47 CALM      30.39S

$$


USA.gov is the U.S. government's official web portal to all federal, state and local government web resources and services.